Location: Menlo Park
(37.4530°N, 122.1817°W)
Time: 15:54:09
(UTC-08:00)

N. Korean satellite - Visible Passes

Search period start: 22 January 2018 00:00
Search period end: 01 February 2018 00:00
Orbit: 458 x 515 km, 97.2° (Epoch: 21 January)

Date Brightness Start Highest point End Pass type
(mag) Time Alt. Az. Time Alt. Az. Time Alt. Az.
22 Jan 9.2 06:11:45 10° NE 06:14:33 23° E 06:17:21 10° SSE visible
22 Jan 7.1 18:18:34 10° S 18:22:07 61° W 18:25:38 10° NNW visible
23 Jan 10.1 05:49:37 10° ENE 05:50:45 11° E 05:51:52 10° ESE visible
23 Jan 6.5 17:54:57 10° SSE 17:58:28 59° ENE 18:01:58 10° N visible
24 Jan 9.9 19:06:25 10° SW 19:08:25 14° W 19:10:24 10° WNW visible
25 Jan 7.7 06:33:43 10° NNE 06:37:05 48° E 06:40:27 10° S visible
25 Jan 8.8 18:41:30 10° SSW 18:44:37 28° W 18:47:43 10° NW visible
26 Jan 9.3 06:10:33 10° NE 06:13:20 22° E 06:16:08 10° SSE visible
26 Jan 7.1 18:17:23 10° S 18:20:55 62° W 18:24:24 10° NNW visible
27 Jan 10.2 05:48:28 10° ENE 05:49:31 11° E 05:50:34 10° ESE visible
27 Jan 6.6 17:53:46 10° SSE 17:57:15 57° ENE 18:00:42 10° N visible
28 Jan 9.9 19:05:10 10° SW 19:07:10 14° W 19:09:11 10° WNW visible
29 Jan 7.8 06:32:27 10° NNE 06:35:50 46° E 06:39:13 10° S visible
29 Jan 8.7 18:40:16 10° SSW 18:43:23 29° W 18:46:27 10° NW visible
30 Jan 9.4 06:09:17 10° NE 06:12:04 22° E 06:14:52 10° SSE visible
30 Jan 7.0 18:16:10 10° S 18:19:39 64° W 18:23:07 10° NNW visible
31 Jan 10.3 05:47:17 10° ENE 05:48:15 11° E 05:49:13 10° ESE visible
31 Jan 6.6 17:52:33 10° SSE 17:55:59 55° ENE 17:59:24 10° N visible
